Location: Härggis
(46.9540°N, 8.4897°E)
Time: 20:57:18
(UTC+00:00)

Cosmos 614 Rocket - Pass Details

Date: 27 May 2022
Orbit: 732 x 764 km, 74.1° (Epoch: 02 July)

Event Time Altitude Azimuth Distance (km) Brightness Sun altitude
Rises 01:12:02 0° 339° (NNW) 3,216 7.9 -17.5°
Reaches altitude 10° 01:14:25 10° 342° (NNW) 2,292 7.1 -17.3°
Maximum altitude 01:19:36 70° 66° (ENE) 810 4.2 -16.9°
Drops below altitude 10° 01:24:47 10° 150° (SSE) 2,291 6.2 -16.5°
Enters shadow 01:25:38 - 151° (SSE) 2,615 6.5 -16.4°
